Mazatlan Airport, Mexico

1:01 AM MST on February 18, 2018 (GMT -0700)
Gen Rafael Buelna International

Weather History for MMMZ - May, 2013

Change the Weather History Date:

Thursday, May 9, 2013

  Actual Average Record
Temperature  
Mean Temperature 75 °F -  
Max Temperature 86 °F 84 °F 89 °F (2002)
Min Temperature 64 °F 59 °F 53 °F (2005)
Cooling Degree Days 10    
Growing Degree Days 25 (Base 50)    
Moisture  
Dew Point 59 °F    
Average Humidity 56    
Maximum Humidity 78    
Minimum Humidity 35    
Precipitation  
Precipitation 0.00 in - - ()
Sea Level Pressure  
Sea Level Pressure 29.91 in    
Wind  
Wind Speed 7 mph ()    
Max Wind Speed 16 mph    
Max Gust Speed -    
Visibility 11.8 miles    
Events      
Averages and records for this station are not official NWS values.
T = Trace of Precipitation, MM = Missing Value Source: Averaged Metar Reports

Daily Weather History Graph

Daily Weather History Graph

Search for Another Location

Airport or City:

Trip Planner

Search our weather history database for the weather conditions in past years. The results will help you decide how hot, cold, wet, or windy it might be!

Date:

Astronomy

May. 09, 2013 Rise Set
Actual Time 6:26 AM MDT 7:36 PM MDT
Civil Twilight 6:02 AM MDT 8:00 PM MDT
Nautical Twilight 5:34 AM MDT 8:29 PM MDT
Astronomical Twilight 5:04 AM MDT 8:58 PM MDT
Moon 6:10 AM MDT (5/9) 7:34 PM MDT (5/9)
Length of Visible Light 13h 57m
Length of Day
13h 09m
Waning Crescent, 0% of the Moon is Illuminated
May 9
Waning Crescent
May 9
New
May 17
First Quarter
May 24
Full
May 31
Last Quarter

Hourly Weather History & Observations

Time (MDT) Temp. Heat Index Dew Point Humidity Pressure Visibility Wind Dir Wind Speed Gust Speed Precip Events Conditions
12:40 AM 68.0 °F - 57.2 °F 68% 29.96 in 10.0 mi SSE 6.9 mph - N/A   Mostly Cloudy
1:40 AM 66.2 °F - 55.4 °F 68% 29.92 in 10.0 mi ENE 6.9 mph - N/A   Mostly Cloudy
2:41 AM 64.4 °F - 57.2 °F 77% 29.89 in 10.0 mi ESE 8.1 mph - N/A   Mostly Cloudy
3:40 AM 66.2 °F - 59.0 °F 78% 29.60 in 10.0 mi SE 3.5 mph - N/A   Mostly Cloudy
4:40 AM 66.2 °F - 57.2 °F 73% 29.92 in 10.0 mi NE 6.9 mph - N/A   Scattered Clouds
5:43 AM 64.4 °F - 57.2 °F 77% 29.92 in 10.0 mi North 9.2 mph - N/A   Scattered Clouds
6:50 AM 64.4 °F - 55.4 °F 73% 29.93 in 10.0 mi North 9.2 mph - N/A   Scattered Clouds
7:46 AM 69.8 °F - 59.0 °F 68% 29.94 in 12.0 mi NNE 8.1 mph - N/A   Scattered Clouds
8:42 AM 75.2 °F - 62.6 °F 65% 29.95 in 12.0 mi ENE 8.1 mph - N/A   Scattered Clouds
9:00 AM 82 °F - 68 °F 55% 29.96 in - East 4.5 mph - -  
9:41 AM 80.6 °F 81.8 °F 62.6 °F 54% 29.96 in 15.0 mi SE 8.1 mph - N/A   Scattered Clouds
10:40 AM 84.2 °F 85.0 °F 62.6 °F 48% 29.96 in 15.0 mi SSE 6.9 mph - N/A   Scattered Clouds
11:40 AM 86.0 °F 86.1 °F 60.8 °F 43% 29.95 in 15.0 mi South 11.5 mph - N/A   Mostly Cloudy
12:00 PM 83 °F - 72 °F 62% 29.98 in - WSW 6.7 mph - -  
12:43 PM 84.2 °F 84.4 °F 60.8 °F 45% 29.94 in 15.0 mi WSW 12.7 mph - N/A   Mostly Cloudy
1:44 PM 84.2 °F 85.0 °F 62.6 °F 48% 29.91 in 5.0 mi SSW 13.8 mph - N/A   Mostly Cloudy
2:49 PM 84.2 °F 85.0 °F 62.6 °F 48% 29.90 in 14.0 mi SW 11.5 mph - N/A   Mostly Cloudy
3:00 PM 84 °F - 71 °F 58% 29.92 in - WSW 6.7 mph - -  
3:40 PM 82.4 °F 82.9 °F 60.8 °F 48% 29.88 in 14.0 mi SSW 9.2 mph - N/A   Mostly Cloudy
4:44 PM 86.0 °F 84.5 °F 55.4 °F 35% 29.85 in 14.0 mi West 16.1 mph - N/A   Mostly Cloudy
5:41 PM 84.2 °F 83.0 °F 55.4 °F 37% 29.85 in 15.0 mi WSW 12.7 mph - N/A   Mostly Cloudy
6:45 PM 82.4 °F - 51.8 °F 35% 29.85 in 15.0 mi West 13.8 mph - N/A   Mostly Cloudy
7:46 PM 78.8 °F - 51.8 °F 39% 29.87 in 13.0 mi West 12.7 mph - N/A   Mostly Cloudy
8:42 PM 75.2 °F - 51.8 °F 44% 29.89 in 10.0 mi WSW 10.4 mph - N/A   Scattered Clouds
9:00 PM 78 °F - 64 °F 53% 29.91 in - WNW 6.7 mph - -  
9:44 PM 71.6 °F - 53.6 °F 53% 29.91 in 10.0 mi West 6.9 mph - N/A   Scattered Clouds
10:44 PM 69.8 °F - 53.6 °F 56% 29.93 in 10.0 mi Calm Calm - N/A   Scattered Clouds
11:51 PM 64.4 °F - 51.8 °F 64% 29.93 in 10.0 mi East 8.1 mph - N/A   Scattered Clouds